Horntown, VA

3:01 AM EST on February 08, 2016 (GMT -0500)
Wallops Flight Facility

Weather History for KWAL - January, 2014

Change the Weather History Date:

Friday, January 24, 2014

  Actual Average Record
Temperature  
Mean Temperature 18 °F 36 °F  
Max Temperature 24 °F 45 °F 70 °F (2002)
Min Temperature 12 °F 28 °F 11 °F (2005)
Degree Days  
Heating Degree Days 47    
Month to date heating degree days 702  
Since 1 July heating degree days 1985  
Cooling Degree Days 0    
Month to date cooling degree days 0  
Year to date cooling degree days 0  
Moisture  
Dew Point 1 °F    
Average Humidity 47    
Maximum Humidity 58    
Minimum Humidity 36    
Precipitation  
Precipitation 0.00 in 0.10 in 1.62 in (2015)
Month to date precipitation 2.36 2.36  
Year to date precipitation 2.36 2.36  
Sea Level Pressure  
Sea Level Pressure 30.41 in    
Wind  
Wind Speed 9 mph (WNW)    
Max Wind Speed 16 mph    
Max Gust Speed 22 mph    
Visibility 10 miles    
Events      
T = Trace of Precipitation, MM = Missing Value Source: NWS Daily Summary

Daily Weather History Graph

Daily Weather History Graph

Search for Another Location

Airport or City:

Trip Planner

Search our weather history database for the weather conditions in past years. The results will help you decide how hot, cold, wet, or windy it might be!

Date:

Astronomy

Jan. 24, 2014 Rise Set
Actual Time 7:12 AM EST 5:16 PM EST
Civil Twilight 6:43 AM EST 5:44 PM EST
Nautical Twilight 6:12 AM EST 6:16 PM EST
Astronomical Twilight 5:40 AM EST 6:47 PM EST
Moon 12:38 AM EST (1/24) 11:32 AM EST (1/24)
Length of Visible Light 11h 00m
Length of Day
10h 04m
Last Quarter, 45% of the Moon is Illuminated
Jan 24
Last Quarter
Jan 30
New
Feb 6
First Quarter
Feb 14
Full
Feb 22
Last Quarter

Hourly Weather History & Observations

Time (EST) Temp. Windchill Dew Point Humidity Pressure Visibility Wind Dir Wind Speed Gust Speed Precip Events Conditions
12:54 AM 18.0 °F 5.4 °F -0.0 °F 45% 30.40 in 10.0 mi NNW 11.5 mph - N/A   Clear
1:54 AM 18.0 °F 4.8 °F -0.0 °F 45% 30.40 in 10.0 mi NNW 12.7 mph - N/A   Clear
2:54 AM 17.1 °F 5.8 °F 1.0 °F 50% 30.43 in 10.0 mi NNW 9.2 mph - N/A   Clear
3:54 AM 15.1 °F 1.8 °F -0.0 °F 51% 30.43 in 10.0 mi NNW 11.5 mph - N/A   Clear
4:54 AM 14.0 °F 1.2 °F -0.0 °F 54% 30.45 in 10.0 mi NNW 10.4 mph - N/A   Clear
6:54 AM 14.0 °F 1.2 °F -0.0 °F 54% 30.50 in 10.0 mi NNW 10.4 mph - N/A   Clear
7:54 AM 14.0 °F 3.9 °F 1.0 °F 56% 30.51 in 10.0 mi NNW 6.9 mph - N/A   Clear
8:54 AM 16.0 °F 2.9 °F 1.9 °F 54% 30.53 in 10.0 mi NNW 11.5 mph - N/A   Clear
9:54 AM 19.0 °F 5.0 °F 1.0 °F 46% 30.54 in 10.0 mi NNW 15.0 mph - N/A   Partly Cloudy
10:54 AM 19.9 °F 8.6 °F -0.0 °F 42% 30.53 in 10.0 mi NW 10.4 mph - N/A   Clear
11:54 AM 21.0 °F 8.1 °F -2.0 °F 36% 30.49 in 10.0 mi NNW 13.8 mph 21.9 mph N/A   Partly Cloudy
12:54 PM 23.0 °F 11.7 °F 1.0 °F 39% 30.44 in 10.0 mi NNW 11.5 mph 18.4 mph N/A   Partly Cloudy
1:54 PM 23.0 °F - -0.9 °F 35% 30.43 in 10.0 mi Calm Calm - N/A   Partly Cloudy
2:54 PM 23.0 °F 13.9 °F -0.9 °F 35% 30.40 in 10.0 mi NW 8.1 mph - N/A   Partly Cloudy
3:54 PM 23.0 °F 13.1 °F -0.0 °F 37% 30.40 in 10.0 mi WNW 9.2 mph - N/A   Clear
4:54 PM 21.0 °F 12.4 °F -0.0 °F 40% 30.39 in 10.0 mi West 6.9 mph - N/A   Clear
5:54 PM 18.0 °F 9.8 °F 1.0 °F 48% 30.38 in 10.0 mi SSW 5.8 mph - N/A   Clear
6:54 PM 16.0 °F 7.4 °F 1.9 °F 54% 30.36 in 10.0 mi SW 5.8 mph - N/A   Clear
7:54 PM 16.0 °F 5.3 °F 1.0 °F 52% 30.34 in 10.0 mi SW 8.1 mph - N/A   Clear
8:54 PM 18.0 °F 6.1 °F 1.9 °F 50% 30.30 in 10.0 mi SW 10.4 mph - N/A   Clear
9:54 PM 18.0 °F 7.7 °F 1.9 °F 50% 30.28 in 10.0 mi SW 8.1 mph - N/A   Clear
10:54 PM 19.9 °F 6.7 °F 1.9 °F 46% 30.24 in 10.0 mi SW 13.8 mph - N/A   Clear
11:54 PM 19.9 °F 9.3 °F 1.9 °F 46% 30.22 in 10.0 mi SW 9.2 mph - N/A   Clear